This is the latest recevied weather packets stored in our database for station/object EA1GGY-1. If no packets are shown the sender has not sent any weather packets the latest 10 day(s).
| Time | Temp. | Humidity | Pressure | Rain* | Wind** | Luminosity | Snow |
|---|---|---|---|---|---|---|---|
| 1778203689 | 10° C | 77% | 1005.9 hPa | - | - | - | - |
| 1778203089 | 10.56° C | 75% | 1005.9 hPa | - | - | - | - |
| 1778202488 | 10° C | 75% | 1005.9 hPa | - | - | - | - |
| 1778201887 | 10.56° C | 71% | 1005.9 hPa | - | - | - | - |
| 1778201286 | 10.56° C | 73% | 1006.1 hPa | - | - | - | - |
| 1778200685 | 10° C | 74% | 1006.2 hPa | - | - | - | - |
| 1778200085 | 10.56° C | 73% | 1006.2 hPa | - | - | - | - |
| 1778199484 | 10.56° C | 72% | 1006.1 hPa | - | - | - | - |
| 1778198883 | 11.67° C | 74% | 1006.2 hPa | - | - | - | - |
| 1778197800 | 11.11° C | 73% | 1006.3 hPa | - | - | - | - |
| 1778197197 | 10.56° C | 75% | 1006.3 hPa | - | - | - | - |
| 1778196597 | 10.56° C | 73% | 1006.3 hPa | - | - | - | - |
| 1778195996 | 10° C | 77% | 1006.5 hPa | - | - | - | - |
| 1778195395 | 10° C | 78% | 1006.5 hPa | - | - | - | - |
| 1778194795 | 10° C | 78% | 1006.5 hPa | - | - | - | - |
| 1778194196 | 10° C | 78% | 1006.6 hPa | - | - | - | - |
| 1778193593 | 10° C | 78% | 1006.8 hPa | - | - | - | - |
| 1778192992 | 10° C | 78% | 1006.8 hPa | - | - | - | - |
| 1778192392 | 10.56° C | 77% | 1006.9 hPa | - | - | - | - |
| 1778191790 | 10° C | 78% | 1007.1 hPa | - | - | - | - |
| 1778191190 | 10.56° C | 77% | 1007 hPa | - | - | - | - |
| 1778190589 | 10.56° C | 76% | 1006.9 hPa | - | - | - | - |
| 1778189988 | 10.56° C | 75% | 1006.9 hPa | - | - | - | - |
| 1778189387 | 10.56° C | 75% | 1006.9 hPa | - | - | - | - |
| 1778188786 | 11.11° C | 75% | 1006.8 hPa | - | - | - | - |
* Rain since midnight (hover to see other rain measurements)
** Current wind speed in m/s (hover to see current wind gust speed)